Location: Apeadero de Los Molinos-Guadarrama
(40.7091°N, 4.0689°W)
Time: 12:55:35
(UTC+00:00)

Cosmos 1782 - Pass Details

Date: 14 May 2021
Orbit: 537 x 550 km, 82.5° (Epoch: 18 June)

Event Time Altitude Azimuth Distance (km) Brightness Sun altitude
Rises 20:01:22 0° 168° (SSE) 2,702 5.9 -6.7°
Reaches altitude 10° 20:03:37 10° 161° (SSE) 1,812 5.0 -7.1°
Maximum altitude 20:07:19 38° 92° (E) 842 3.4 -7.7°
Drops below altitude 10° 20:11:02 10° 24° (NNE) 1,818 5.6 -8.3°
Sets 20:13:17 0° 16° (NNE) 2,713 6.6 -8.6°
